Weather History for KLHX - September, 2013

Change the Weather History Date:

Monday, September 16, 2013

  Actual Average Record
Temperature  
Mean Temperature 65 °F 67 °F  
Max Temperature 73 °F 83 °F 98 °F (1954)
Min Temperature 56 °F 52 °F 35 °F (1965)
Degree Days  
Heating Degree Days 0 2  
Month to date heating degree days 1 15  
Since 1 July heating degree days 1 19  
Cooling Degree Days 0 4  
Month to date cooling degree days 182 102  
Year to date cooling degree days 1583 1180  
Growing Degree Days 14 (Base 50)    
Moisture  
Dew Point 56 °F    
Average Humidity 81    
Maximum Humidity 100    
Minimum Humidity 61    
Precipitation  
Precipitation 0.02 in 0.03 in 0.34 in (1967)
Month to date precipitation 0.53 0.49  
Year to date precipitation 4.54 9.57  
Sea Level Pressure  
Sea Level Pressure 30.16 in    
Wind  
Wind Speed 10 mph (East)    
Max Wind Speed 21 mph    
Max Gust Speed 24 mph    
Visibility 7 miles    
Events Rain    
T = Trace of Precipitation, MM = Missing Value Source: NWS Daily Summary

Daily Weather History Graph

Daily Weather History Graph

Search for Another Location

Airport or City:

Trip Planner

Search our weather history database for the weather conditions in past years. The results will help you decide how hot, cold, wet, or windy it might be!

Date:

Astronomy

Sep. 16, 2013 Rise Set
Actual Time 6:36 AM MDT 6:59 PM MDT
Civil Twilight 6:10 AM MDT 7:26 PM MDT
Nautical Twilight 5:39 AM MDT 7:57 PM MDT
Astronomical Twilight 5:07 AM MDT 8:28 PM MDT
Moon 5:08 PM MDT (9/16) 3:28 AM MDT (9/16)
Length of Visible Light 13h 15m
Length of Day
12h 23m
Waxing Gibbous, 90% of the Moon is Illuminated
Sep 16
Waxing Gibbous
Sep 19
Full
Sep 26
Last Quarter
Oct 4
New
Oct 11
First Quarter

Hourly Weather History & Observations

Time (MDT) Temp. Dew Point Humidity Pressure Visibility Wind Dir Wind Speed Gust Speed Precip Events Conditions
12:33 AM 57.2 °F 55.4 °F 94% 30.26 in 7.0 mi East 11.5 mph - 0.01 in Rain Light Rain
12:53 AM 55.9 °F 55.0 °F 97% 30.14 in 7.0 mi East 11.5 mph - 0.02 in Rain Light Rain
1:04 AM 55.4 °F 55.4 °F 100% 30.27 in 8.0 mi East 9.2 mph - 0.00 in Rain Light Rain
1:38 AM 55.4 °F 53.6 °F 94% 30.27 in 10.0 mi East 8.1 mph - 0.00 in   Overcast
1:53 AM 55.9 °F 55.0 °F 97% 30.14 in 6.0 mi ENE 6.9 mph - 0.00 in   Overcast
2:02 AM 55.4 °F 55.4 °F 100% 30.26 in 3.0 mi ENE 9.2 mph - N/A   Overcast
2:10 AM 55.4 °F 55.4 °F 100% 30.26 in 2.0 mi ENE 9.2 mph - N/A   Overcast
2:43 AM 55.4 °F 53.6 °F 94% 30.26 in 4.0 mi ENE 10.4 mph - N/A   Overcast
2:53 AM 55.9 °F 55.0 °F 97% 30.13 in 3.0 mi ENE 8.1 mph - N/A   Overcast
3:53 AM 55.9 °F 55.0 °F 97% 30.13 in 6.0 mi East 10.4 mph - 0.01 in   Overcast
4:08 AM 55.4 °F 55.4 °F 100% 30.25 in 2.5 mi East 8.1 mph - N/A   Overcast
4:34 AM 55.4 °F 55.4 °F 100% 30.25 in 3.0 mi East 8.1 mph - N/A   Overcast
4:53 AM 55.9 °F 55.0 °F 97% 30.14 in 5.0 mi ENE 6.9 mph - N/A   Overcast
5:41 AM 55.4 °F 55.4 °F 100% 30.25 in 8.0 mi East 8.1 mph - N/A   Overcast
5:53 AM 55.9 °F 55.0 °F 97% 30.13 in 10.0 mi ENE 9.2 mph - N/A   Overcast
6:06 AM 55.4 °F 55.4 °F 100% 30.25 in 10.0 mi East 9.2 mph - N/A   Overcast
6:53 AM 57.0 °F 55.0 °F 93% 30.17 in 10.0 mi East 6.9 mph - N/A   Overcast
7:50 AM 57.2 °F 55.4 °F 94% 30.28 in 1.8 mi ESE 6.9 mph - N/A   Overcast
7:53 AM 57.0 °F 55.9 °F 96% 30.18 in 1.5 mi ESE 8.1 mph - N/A   Overcast
8:02 AM 57.2 °F 55.4 °F 94% 30.28 in 3.0 mi ESE 8.1 mph - N/A   Overcast
8:18 AM 57.2 °F 55.4 °F 94% 30.28 in 2.0 mi ESE 6.9 mph - N/A   Overcast
8:26 AM 57.2 °F 55.4 °F 94% 30.28 in 1.5 mi ESE 8.1 mph - 0.00 in Rain Light Rain
8:37 AM 57.2 °F 55.4 °F 94% 30.28 in 2.0 mi ESE 8.1 mph - 0.00 in   Overcast
8:53 AM 57.0 °F 55.9 °F 96% 30.18 in 3.0 mi East 8.1 mph - 0.00 in   Overcast
9:50 AM 59.0 °F 55.4 °F 88% 30.28 in 10.0 mi East 5.8 mph - N/A   Overcast
9:53 AM 59.0 °F 55.9 °F 90% 30.18 in 10.0 mi East 6.9 mph - N/A   Overcast
10:53 AM 61.0 °F 57.0 °F 87% 30.16 in 10.0 mi ESE 6.9 mph - 0.01 in   Overcast
11:18 AM 62.6 °F 57.2 °F 82% 30.26 in 10.0 mi ESE 4.6 mph - N/A   Overcast
11:53 AM 64.0 °F 57.0 °F 78% 30.14 in 10.0 mi ESE 3.5 mph - N/A   Overcast
12:53 PM 64.9 °F 57.0 °F 75% 30.12 in 10.0 mi SE 5.8 mph - N/A   Overcast
1:53 PM 68.0 °F 59.0 °F 73% 30.08 in 10.0 mi ESE 9.2 mph - N/A   Overcast
2:53 PM 70.0 °F 57.9 °F 65% 30.04 in 10.0 mi East 8.1 mph - N/A   Partly Cloudy
3:53 PM 72.0 °F 57.9 °F 61% 30.00 in 10.0 mi East 13.8 mph 19.6 mph N/A   Partly Cloudy
4:53 PM 71.1 °F 59.0 °F 66% 29.98 in 10.0 mi East 15.0 mph - N/A   Clear
5:53 PM 69.1 °F 59.0 °F 70% 29.98 in 10.0 mi East 17.3 mph - N/A   Clear
6:53 PM 64.9 °F 59.0 °F 81% 29.98 in 10.0 mi ENE 16.1 mph - N/A   Clear
7:53 PM 63.0 °F 59.0 °F 87% 29.99 in 10.0 mi ENE 15.0 mph - N/A   Clear
8:53 PM 62.1 °F 60.1 °F 93% 30.00 in 10.0 mi East 15.0 mph - N/A   Clear
9:53 PM 61.0 °F 59.0 °F 93% 30.01 in 8.0 mi East 12.7 mph - N/A   Clear
10:53 PM 61.0 °F 59.0 °F 93% 30.01 in 9.0 mi SE 5.8 mph - N/A   Clear
11:53 PM 61.0 °F 59.0 °F 93% 29.99 in 7.0 mi SW 8.1 mph - N/A   Partly Cloudy